Volver al catálogo

RADUGA 15

ActivoMilitarGEO
NORAD 15057·PAYLOAD·🇷🇺 Russia

Lanzado Jun 22, 1984 desde Baikonur Cosmodrome

Loading…

TLE

ActualizadoSource: Space-Track

Época: Sep 14, 2026, 05:25 UTC

1 15057U 84063A   26257.22602409  .00000132  00000-0  00000-0 0  9992
2 15057   8.5669 311.2761 0003671 233.2812 286.7425  1.00200598141996

Sigue RADUGA 15 en tiempo real con AllMySat

Download on the App Store